軌道要素
Epoch 2004 Nov. 11.0 TT = JDT 2453320.5
T 2004 Nov. 10.28305 TT MPC
q 1.2276348 (2000.0) P Q
n 0.18516730 Peri. 356.36222 +0.88227241 -0.40357585
a 3.0485491 Node 31.25259 +0.44282638 +0.53691517
e 0.5973052 Incl. 27.84485 +0.15968781 +0.74084319
P 5.32
From 1411 observations 1990 Mar. 23-2012 Apr. 21, mean residual 0".4.
|